Location: Salluit
(62.2046°N, 75.6437°W)
Time: 12:41:21
(UTC-04:00)

SL-21 R/B - Visible Passes

Search period start: 30 October 2014 00:00
Search period end: 08 November 2014 23:00
Orbit: 238 x 253 km, 78.9° (Epoch: 30 October)

Date Brightness Start Highest point End Pass type
(mag) Time Alt. Az. Time Alt. Az. Time Alt. Az.
30 Oct 4.1 18:33:43 10° N 18:35:45 29° ENE 18:36:19 25° E visible
30 Oct 6.5 20:04:30 10° NW 20:05:47 17° W 20:05:47 17° W visible
31 Oct 4.1 18:24:23 10° N 18:26:23 30° ENE 18:27:32 18° ESE visible
31 Oct 6.3 19:55:10 10° NW 19:56:42 17° W 19:56:58 17° WSW visible
01 Nov 4.0 18:14:16 10° N 18:16:15 30° ENE 18:18:11 10° SE visible
01 Nov 6.4 19:45:01 10° WNW 19:46:30 16° W 19:47:35 12° SW visible
02 Nov 4.0 17:03:23 10° N 17:05:20 29° ENE 17:07:16 10° SE visible
02 Nov 6.5 18:34:04 10° WNW 18:35:32 16° W 18:37:00 10° SW visible
03 Nov 4.0 16:51:43 10° N 16:53:37 28° ENE 16:55:31 10° ESE visible
03 Nov 6.5 18:22:20 10° WNW 18:23:48 16° W 18:25:15 10° SW visible
04 Nov 4.1 16:39:16 10° N 16:41:08 26° ENE 16:42:59 10° ESE visible
04 Nov 6.5 18:09:47 10° NW 18:11:16 17° W 18:12:45 10° SSW visible
05 Nov 6.4 17:56:27 10° NW 17:57:59 18° WSW 17:59:31 10° SSW visible
06 Nov 6.3 17:42:20 10° NW 17:43:55 19° WSW 17:45:30 10° SSW visible
07 Nov 6.6 06:50:50 10° SE 06:52:07 15° E 06:53:26 10° ENE visible
07 Nov 6.1 17:27:25 10° NW 17:29:05 21° WSW 17:30:44 10° SSW visible
08 Nov 6.7 06:35:48 10° SE 06:36:52 13° E 06:37:57 10° ENE visible
08 Nov 5.8 17:11:44 10° NW 17:13:28 24° WSW 17:15:12 10° SSW visible
